Weather History for KRUE - February, 2014

Change the Weather History Date:

Thursday, February 20, 2014

  Actual Average (KHOT) Record (KHOT)
Temperature  
Mean Temperature 58 °F -  
Max Temperature 78 °F 58 °F 86 °F (1986)
Min Temperature 37 °F 34 °F 17 °F (1978)
Degree Days  
Heating Degree Days 8    
Growing Degree Days 8 (Base 50)    
Moisture  
Dew Point 49 °F    
Average Humidity 63    
Maximum Humidity 84    
Minimum Humidity 28    
Precipitation  
Precipitation 0.00 in - - ()
Sea Level Pressure  
Sea Level Pressure 29.70 in    
Wind  
Wind Speed 7 mph (SW)    
Max Wind Speed 24 mph    
Max Gust Speed 45 mph    
Visibility 10 miles    
Events      
Averages and records for this station are not official NWS values.
T = Trace of Precipitation, MM = Missing Value Source: NWS Daily Summary

Daily Weather History Graph

Daily Weather History Graph

Search for Another Location

Airport or City:

Trip Planner

Search our weather history database for the weather conditions in past years. The results will help you decide how hot, cold, wet, or windy it might be!

Date:

Astronomy

Feb. 20, 2014 Rise Set
Actual Time 6:53 AM CST 5:59 PM CST
Civil Twilight 6:27 AM CST 6:25 PM CST
Nautical Twilight 5:57 AM CST 6:55 PM CST
Astronomical Twilight 5:28 AM CST 7:24 PM CST
Moon 11:40 PM CST (2/20) 9:49 AM CST (2/20)
Length of Visible Light 11h 58m
Length of Day
11h 06m
Waning Gibbous, 70% of the Moon is Illuminated
Feb 20
Waning Gibbous
Feb 22
Last Quarter
Mar 1
New
Mar 8
First Quarter
Mar 16
Full

Hourly Weather History & Observations

Time (CST) Temp. Windchill Dew Point Humidity Pressure Visibility Wind Dir Wind Speed Gust Speed Precip Events Conditions
12:53 AM 62.1 °F - 57.0 °F 84% 29.67 in 9.0 mi Variable 3.5 mph - N/A   Overcast
1:20 AM 62.6 °F - 57.2 °F 82% 29.68 in 10.0 mi Calm Calm - N/A   Overcast
1:27 AM 62.6 °F - 57.2 °F 82% 29.67 in 10.0 mi SE 3.5 mph - N/A   Overcast
1:53 AM 63.0 °F - 57.0 °F 81% 29.66 in 10.0 mi Calm Calm - N/A   Overcast
2:43 AM 66.2 °F - 57.2 °F 73% 29.65 in 10.0 mi Variable 6.9 mph - N/A   Overcast
2:53 AM 66.0 °F - 57.0 °F 73% 29.63 in 10.0 mi South 8.1 mph - N/A   Overcast
3:14 AM 66.2 °F - 57.2 °F 73% 29.64 in 10.0 mi South 8.1 mph 16.1 mph N/A   Overcast
3:33 AM 66.2 °F - 57.2 °F 73% 29.64 in 10.0 mi Variable 6.9 mph 16.1 mph N/A   Overcast
3:43 AM 66.2 °F - 57.2 °F 73% 29.64 in 10.0 mi South 9.2 mph - N/A   Overcast
3:53 AM 66.9 °F - 57.0 °F 70% 29.62 in 10.0 mi South 6.9 mph 18.4 mph N/A   Overcast
4:53 AM 66.0 °F - 55.9 °F 70% 29.61 in 10.0 mi South 5.8 mph - N/A   Overcast
5:53 AM 66.0 °F - 57.0 °F 73% 29.60 in 10.0 mi South 9.2 mph 18.4 mph N/A   Overcast
6:50 AM 66.2 °F - 57.2 °F 73% 29.59 in 10.0 mi South 12.7 mph 21.9 mph N/A   Overcast
6:53 AM 66.9 °F - 57.0 °F 70% 29.57 in 10.0 mi South 9.2 mph 21.9 mph N/A   Overcast
7:33 AM 66.2 °F - 57.2 °F 73% 29.61 in 10.0 mi South 10.4 mph 21.9 mph N/A   Overcast
7:53 AM 66.9 °F - 57.0 °F 70% 29.59 in 10.0 mi South 12.7 mph 19.6 mph N/A   Overcast
8:53 AM 68.0 °F - 57.9 °F 70% 29.60 in 10.0 mi South 10.4 mph 21.9 mph N/A   Overcast
9:53 AM 70.0 °F - 57.9 °F 65% 29.58 in 10.0 mi SSW 11.5 mph 19.6 mph N/A   Overcast
10:12 AM 71.6 °F - 59.0 °F 64% 29.61 in 10.0 mi SSW 10.4 mph 24.2 mph N/A   Overcast
10:53 AM 72.0 °F - 57.9 °F 61% 29.59 in 10.0 mi SSW 13.8 mph 21.9 mph N/A   Overcast
11:53 AM 75.0 °F - 55.9 °F 51% 29.59 in 10.0 mi SW 13.8 mph 27.6 mph N/A   Mostly Cloudy
12:53 PM 78.1 °F - 53.1 °F 42% 29.57 in 10.0 mi SW 11.5 mph 26.5 mph N/A   Mostly Cloudy
1:53 PM 72.0 °F - 37.0 °F 28% 29.58 in 10.0 mi WNW 21.9 mph 34.5 mph N/A   Overcast
2:53 PM 66.9 °F - 37.0 °F 33% 29.66 in 10.0 mi West 24.2 mph 44.9 mph N/A   Clear
3:53 PM 62.1 °F - 36.0 °F 38% 29.75 in 10.0 mi West 17.3 mph 38.0 mph N/A   Clear
4:53 PM 57.0 °F - 33.1 °F 40% 29.81 in 10.0 mi West 21.9 mph 35.7 mph N/A   Clear
5:53 PM 53.1 °F - 30.0 °F 41% 29.86 in 10.0 mi NW 15.0 mph 25.3 mph N/A   Clear
6:53 PM 50.0 °F - 30.0 °F 46% 29.91 in 10.0 mi NW 4.6 mph - N/A   Clear
7:53 PM 50.0 °F - 28.9 °F 44% 29.95 in 10.0 mi WNW 9.2 mph - N/A   Clear
8:53 PM 42.1 °F - 30.0 °F 62% 29.96 in 10.0 mi Calm Calm - N/A   Clear
9:53 PM 43.0 °F 41.3 °F 28.9 °F 58% 29.96 in 10.0 mi West 3.5 mph - N/A   Clear
10:53 PM 37.0 °F - 30.0 °F 76% 29.96 in 10.0 mi Calm Calm - N/A   Clear
11:53 PM 37.9 °F 32.7 °F 28.0 °F 68% 29.97 in 10.0 mi WNW 6.9 mph - N/A   Clear